[[{"header":{"parameterUnit":"m.s-1","parameterCategory":1,"la1":30.2991,"la2":30.254,"lo1":-89.0895,"lo2":-89.0444,"dy":0.0017,"dx":0.0017,"nx":28,"ny":28,"refTime":"2025-06-13T03:00:00:Z","depth":0,"parameterNumber":2,"parameterNumberName":"U-component_of_WINDS"},"data":[0,0,0,0,0,0,0,0,0,0,0,0,0,0,0,0,0,0,0,0,0,0,0,0,0,0,0,0,0,0,0,0,0,0,0,0,0,0,0,0,0,0,0,0,0,0,0,0,0,0,0,0,0,0,0,0,0,0,-0.9439,-0.9438,0,-0.9303,-0.9301,-0.93,-0.9203,-0.9203,-0.9202,-0.9201,-0.9058,-0.9055,-0.9052,0,0,0,0,0,0,0,0,0,0,0,0,0,-0.9615,-0.9612,-0.9439,-0.9438,-0.9436,-0.9303,-0.9301,-0.9299,-0.9204,-0.9203,-0.9202,-0.9201,-0.9059,-0.9055,-0.9052,0,0,0,0,0,0,0,0,0,0,0,0,0,-0.9514,-0.9611,-0.944,-0.9372,-0.9365,-0.9304,-0.9301,-0.9299,-0.9204,-0.9203,-0.9201,-0.92,-0.906,-0.9056,-0.9051,-0.9045,0,0,-0.9037,-0.9035,0,0,0,0,0,0,0,0,-0.952,-0.9508,-0.9384,-0.9377,-0.9368,-0.9269,-0.931,-0.9214,-0.9204,-0.9265,-0.9201,-0.92,-0.9129,-0.9119,-0.9095,-0.9038,-0.9032,-0.9036,-0.9034,-0.9032,-0.903,0,0,0,0,0,0,0,-0.9527,-0.9513,-0.9385,-0.9382,-0.9373,-0.9348,-0.9333,-0.9292,-0.9205,-0.9259,-0.9252,-0.9237,-0.9124,-0.91,-0.9091,-0.903,-0.9037,-0.9032,-0.9029,-0.9028,-0.8961,-0.8962,0,0,0,0,0,0,-0.9545,-0.952,-0.939,-0.9381,-0.9443,-0.9346,-0.9328,-0.9302,-0.9205,-0.9189,-0.9239,-0.9233,-0.9109,-0.9097,-0.9086,-0.9072,-0.9032,-0.9027,-0.9025,-0.896,-0.8961,-0.8962,0,0,0,0,0,0,-0.9549,-0.9534,-0.9395,-0.9448,-0.9429,-0.9344,-0.9315,-0.93,-0.9275,-0.9189,-0.9173,-0.923,-0.9107,-0.9092,-0.9056,-0.9065,-0.9025,-0.9021,-0.8958,-0.896,-0.8961,-0.9044,0,0,0,0,0,0,-0.9555,-0.9537,-0.9534,-0.9449,-0.9426,-0.9369,-0.9316,-0.9298,-0.9268,-0.926,-0.9177,-0.9162,-0.9105,-0.9063,-0.9051,-0.9058,-0.9017,-0.8957,-0.8959,-0.8961,-0.904,-0.9048,-0.9055,0,0,0,0,0,-0.9561,-0.9562,-0.9534,-0.9519,-0.9421,-0.9369,-0.9356,-0.9292,-0.9269,-0.9265,-0.921,-0.9164,-0.9067,-0.9061,-0.9046,-0.9052,-0.8956,-0.8959,-0.8961,-0.9037,-0.9047,-0.9055,0,0,0,0,0,0,-0.9648,-0.9549,-0.9518,-0.9491,-0.944,-0.9353,-0.9346,-0.9305,-0.9258,-0.9252,-0.9174,-0.9156,-0.9127,-0.9086,-0.9081,-0.9041,-0.9006,-0.9005,-0.9069,-0.9077,-0.9085,-0.9095,-0.9013,0,0,0,0,0,-0.9665,-0.9632,-0.9547,-0.9531,-0.9507,-0.9432,-0.9407,-0.9362,-0.9305,-0.9282,-0.9224,-0.917,-0.9127,-0.91,-0.9055,-0.9034,-0.9014,-0.9031,-0.9039,-0.9045,-0.9045,-0.9031,-0.9037,-0.8969,-0.8969,-0.8969,0,0,-0.9698,-0.964,-0.9623,-0.9547,-0.9502,-0.9469,-0.9414,-0.9381,-0.9355,-0.9277,-0.9239,-0.9195,-0.9129,-0.91,-0.9085,-0.9065,-0.906,-0.9048,-0.9054,-0.905,-0.9034,-0.904,-0.9046,-0.8971,-0.8971,-0.8971,0,0,-0.974,-0.9694,-0.9676,-0.9632,-0.9565,-0.9515,-0.9511,-0.9431,-0.9399,-0.936,-0.9301,-0.9269,-0.9196,-0.9152,-0.912,-0.9147,-0.9103,-0.9135,-0.9174,-0.9161,-0.9166,-0.917,-0.9179,-0.9184,-0.9136,-0.9136,-0.9136,0,-0.9789,-0.9738,-0.9671,-0.9642,-0.961,-0.954,-0.952,-0.9481,-0.9402,-0.9382,-0.9361,-0.9269,-0.922,-0.918,-0.9187,-0.9163,-0.9155,-0.9143,-0.9171,-0.9175,-0.9177,-0.9185,-0.9189,-0.914,-0.914,-0.9139,-0.9139,0,-0.9801,-0.9766,-0.976,-0.9687,-0.9654,-0.963,-0.956,-0.9535,-0.9494,-0.9446,-0.9407,-0.9346,-0.9288,-0.9275,-0.9234,-0.9229,-0.9219,-0.9186,-0.9149,-0.9189,-0.9195,-0.9198,-0.9146,-0.9145,-0.9144,-0.9142,0,0,-0.9893,-0.9785,-0.9784,-0.975,-0.9672,-0.9643,-0.9616,-0.956,-0.954,-0.9489,-0.9463,-0.9405,-0.9374,-0.9338,-0.9291,-0.9279,-0.9305,-0.9247,-0.9244,-0.9259,-0.9295,-0.932,-0.9324,-0.9276,-0.9276,-0.9276,-0.93,0,-0.9923,-0.9871,-0.9811,-0.978,-0.9746,-0.968,-0.9656,-0.9605,-0.956,-0.9524,-0.9473,-0.9433,-0.9396,-0.9373,-0.9359,-0.9305,-0.931,-0.9302,-0.925,-0.9249,-0.9268,-0.9327,-0.9353,-0.9378,-0.9302,-0.9302,-0.9303,0,-0.9951,-0.9904,-0.987,-0.9795,-0.9778,-0.9758,-0.9702,-0.967,-0.961,-0.9578,-0.9539,-0.9489,-0.9457,-0.9426,-0.9379,-0.9375,-0.935,-0.932,-0.9319,-0.9311,-0.9277,-0.9319,-0.9385,-0.9389,-0.9306,-0.9306,-0.9305,0,-1.0021,-0.9949,-0.9919,-0.9893,-0.9804,-0.9792,-0.9754,-0.9694,-0.9664,-0.9616,-0.9596,-0.9544,-0.9515,-0.9476,-0.9413,-0.9397,-0.9373,-0.9337,-0.9345,-0.9346,-0.9341,-0.9342,-0.9403,-0.9328,-0.9328,-0.9328,-0.9328,0,-1.006,-1.0041,-0.995,-0.9931,-0.9908,-0.984,-0.9818,-0.9775,-0.9722,-0.9693,-0.9632,-0.9606,-0.9526,-0.9491,-0.9442,-0.941,-0.9398,-0.937,-0.9357,-0.9375,-0.9378,-0.9356,-0.9353,-0.9329,-0.9329,-0.9328,-0.9328,0,-1.0134,-1.0072,-1.0034,-0.9954,-0.9934,-0.9921,-0.9851,-0.983,-0.9783,-0.9747,-0.9735,-0.9659,-0.9614,-0.9549,-0.9483,-0.945,-0.9426,-0.9406,-0.9447,-0.9439,-0.945,-0.9449,-0.9497,-0.95,-0.9425,-0.9426,-0.9427,0,-1.0162,-1.0146,-1.0065,-1.0042,-1.0007,-0.997,-0.994,-0.9872,-0.9844,-0.9775,-0.9763,-0.9714,-0.967,-0.9602,-0.954,-0.949,-0.9468,-0.9488,-0.9459,-0.9478,-0.9467,-0.9468,-0.9466,-0.9494,-0.9496,-0.9496,-0.9497,0,-1.0219,-1.0189,-1.0149,-1.0099,-1.0065,-1.0021,-0.9975,-0.9959,-0.9881,-0.9852,-0.9806,-0.9773,-0.9707,-0.9659,-0.9601,-0.9561,-0.9516,-0.9507,-0.9506,-0.9523,-0.9547,-0.9534,-0.9464,-0.9506,-0.9505,-0.9504,-0.9504,-0.9503,-1.027,-1.0253,-1.0193,-1.015,-1.0109,-1.0067,-1.0044,-0.9993,-0.9954,-0.9896,-0.9858,-0.9814,-0.9755,-0.9673,-0.9636,-0.96,-0.9581,-0.9579,-0.9579,-0.9579,-0.9585,-0.9555,-0.9589,-0.9588,-0.9588,-0.9588,-0.9588,0,-1.0323,-1.0282,-1.0243,-1.0181,-1.0147,-1.011,-1.0056,-1.003,-0.9993,-0.9942,-0.9902,-0.9849,-0.9802,-0.9738,-0.9686,-0.9669,-0.9647,-0.9658,-0.9658,-0.9649,-0.9606,-0.9611,-0.9677,-0.9677,-0.9677,-0.9677,-0.9677,-0.9677,-1.0347,-1.0316,-1.0279,-1.0227,-1.0185,-1.0142,-1.0115,-1.0076,-1.0035,-0.998,-0.9941,-0.99,-0.9843,-0.9787,-0.9742,-0.9724,-0.9707,-0.9724,-0.97,-0.966,-0.9652,-0.9644,-0.9649,-0.9722,-0.9722,-0.9746,-0.9747,-0.9747]},{"header":{"parameterUnit":"m.s-1","parameterCategory":1,"la1":30.2991,"la2":30.254,"lo1":-89.0895,"lo2":-89.0444,"dy":0.0017,"dx":0.0017,"nx":28,"ny":28,"refTime":"2025-06-13T03:00:00:Z","depth":0,"parameterNumber":3,"parameterNumberName":"V-component_of_WINDS"},"data":[0,0,0,0,0,0,0,0,0,0,0,0,0,0,0,0,0,0,0,0,0,0,0,0,0,0,0,0,0,0,0,0,0,0,0,0,0,0,0,0,0,0,0,0,0,0,0,0,0,0,0,0,0,0,0,0,0,0,4.2109,4.2109,0,4.2053,4.2052,4.2052,4.2034,4.2034,4.2034,4.2035,4.1973,4.1971,4.1969,0,0,0,0,0,0,0,0,0,0,0,0,0,4.2197,4.2196,4.2109,4.2109,4.2108,4.2053,4.2052,4.2052,4.2034,4.2034,4.2034,4.2035,4.1974,4.1972,4.1969,0,0,0,0,0,0,0,0,0,0,0,0,0,4.2152,4.2195,4.2109,4.2092,4.209,4.2053,4.2052,4.2051,4.2034,4.2034,4.2035,4.2035,4.1975,4.1972,4.1969,4.1943,0,0,4.196,4.1959,0,0,0,0,0,0,0,0,4.2154,4.2149,4.2096,4.2094,4.2091,4.2051,4.2061,4.2015,4.2034,4.2055,4.2035,4.2035,4.1998,4.1994,4.1982,4.1941,4.1938,4.196,4.1958,4.1957,4.1956,0,0,0,0,0,0,0,4.2158,4.2151,4.2087,4.2095,4.2092,4.2087,4.2081,4.2052,4.2025,4.2053,4.2052,4.2046,4.1997,4.1985,4.1981,4.1937,4.196,4.1958,4.1956,4.1955,4.1873,4.1872,0,0,0,0,0,0,4.2164,4.2154,4.2089,4.2085,4.2125,4.2085,4.2078,4.2063,4.2025,4.202,4.2045,4.2045,4.199,4.1984,4.1978,4.1947,4.1957,4.1955,4.1953,4.1873,4.1872,4.1872,0,0,0,0,0,0,4.2166,4.2159,4.2091,4.2119,4.211,4.2083,4.2067,4.2062,4.205,4.202,4.2014,4.2038,4.199,4.1982,4.1953,4.1944,4.1953,4.1951,4.1874,4.1873,4.1872,4.1883,0,0,0,0,0,0,4.2169,4.2159,4.215,4.2119,4.2109,4.2067,4.2066,4.2061,4.2045,4.2044,4.2011,4.2006,4.1989,4.1957,4.195,4.194,4.1948,4.1874,4.1873,4.1872,4.1883,4.1882,4.1882,0,0,0,0,0,4.2172,4.2154,4.215,4.2142,4.2097,4.2067,4.2061,4.2043,4.2045,4.2035,4.2016,4.2007,4.1946,4.1954,4.1946,4.1936,4.1875,4.1874,4.1872,4.1883,4.1882,4.1882,0,0,0,0,0,0,4.2183,4.215,4.2144,4.2116,4.2095,4.2064,4.2051,4.2043,4.2019,4.2019,4.1997,4.199,4.1962,4.1946,4.1955,4.1909,4.191,4.1907,4.1921,4.192,4.192,4.1924,4.1946,0,0,0,0,0,4.2183,4.2162,4.2134,4.2111,4.2101,4.2078,4.2064,4.2053,4.2029,4.2019,4.1998,4.1974,4.195,4.1934,4.191,4.1881,4.1873,4.1869,4.1869,4.1869,4.1866,4.185,4.1849,4.1868,4.1868,4.1868,0,0,4.218,4.216,4.2148,4.2113,4.2095,4.2074,4.207,4.2047,4.2031,4.2015,4.1987,4.197,4.1942,4.1913,4.1899,4.1899,4.1859,4.1867,4.1867,4.1865,4.1849,4.1847,4.1846,4.1868,4.1868,4.1868,0,0,4.2166,4.2149,4.2129,4.2111,4.2085,4.207,4.2065,4.2036,4.2024,4.1996,4.1984,4.1964,4.1922,4.1903,4.1888,4.1868,4.1859,4.186,4.1857,4.1842,4.1841,4.1839,4.1832,4.183,4.1858,4.1858,4.1858,0,4.2166,4.2135,4.2119,4.2098,4.2083,4.2069,4.2049,4.2032,4.1998,4.1988,4.1988,4.1937,4.1917,4.1883,4.1879,4.1867,4.186,4.1864,4.1842,4.1841,4.1839,4.1832,4.183,4.1859,4.1859,4.1859,4.1858,0,4.2137,4.2116,4.2103,4.2073,4.2056,4.2035,4.2015,4.2,4.199,4.1975,4.1946,4.1922,4.1893,4.1885,4.1874,4.185,4.1851,4.1847,4.1847,4.1838,4.1831,4.1828,4.1859,4.1859,4.1859,4.1859,0,0,4.2127,4.209,4.2085,4.2072,4.2043,4.2025,4.2003,4.1977,4.1965,4.1942,4.1923,4.1889,4.1886,4.1869,4.1856,4.1843,4.1829,4.1841,4.184,4.184,4.1802,4.1805,4.1802,4.1824,4.1823,4.1823,4.1804,0,4.2109,4.2072,4.2057,4.2026,4.2006,4.1994,4.1975,4.1954,4.1939,4.1919,4.1903,4.1879,4.1877,4.1866,4.1853,4.1834,4.1821,4.1835,4.1805,4.1804,4.1813,4.1798,4.1801,4.1785,4.1801,4.1801,4.18,0,4.2083,4.2063,4.203,4.2004,4.1995,4.1979,4.1954,4.1935,4.1911,4.1902,4.1884,4.1872,4.1848,4.1851,4.1818,4.1827,4.1814,4.1803,4.1802,4.1799,4.1802,4.1794,4.1779,4.1777,4.1796,4.1796,4.1797,0,4.208,4.2043,4.202,4.2009,4.1978,4.1966,4.1953,4.193,4.1915,4.1893,4.1883,4.1858,4.1844,4.1825,4.1806,4.181,4.1775,4.1776,4.1766,4.1767,4.1759,4.176,4.1741,4.1751,4.1751,4.1751,4.1751,0,4.2061,4.2042,4.2018,4.2003,4.1981,4.1964,4.1943,4.1928,4.1908,4.1889,4.1877,4.1859,4.1837,4.1816,4.1802,4.1777,4.1771,4.1762,4.1758,4.1763,4.1764,4.1754,4.1755,4.175,4.175,4.175,4.175,0,4.2053,4.2037,4.201,4.1984,4.1977,4.1961,4.1938,4.1923,4.1909,4.1886,4.1879,4.1856,4.1831,4.1812,4.1779,4.177,4.1744,4.174,4.1752,4.175,4.1742,4.1743,4.1716,4.1712,4.1724,4.1724,4.1724,0,4.2042,4.2028,4.2,4.1988,4.1975,4.1955,4.1941,4.1924,4.1909,4.1882,4.187,4.1845,4.1824,4.1786,4.1766,4.1741,4.1736,4.1728,4.1732,4.1738,4.1736,4.1737,4.1736,4.1728,4.1728,4.1728,4.1728,0,4.2025,4.2018,4.1999,4.1977,4.1961,4.1942,4.1923,4.1913,4.1892,4.1877,4.1853,4.1837,4.1805,4.178,4.1754,4.1739,4.173,4.1727,4.1724,4.1728,4.1736,4.1732,4.1751,4.1728,4.1728,4.1728,4.1728,4.1728,4.2016,4.2002,4.1982,4.1961,4.1945,4.1928,4.1913,4.1897,4.1878,4.1851,4.1842,4.1817,4.1795,4.1759,4.1744,4.1724,4.1723,4.1717,4.1716,4.1715,4.1716,4.174,4.1718,4.1718,4.1718,4.1718,4.1718,0,4.1998,4.1985,4.1966,4.1941,4.1924,4.1919,4.1898,4.1884,4.1863,4.1843,4.1824,4.1797,4.1773,4.1752,4.1727,4.1715,4.171,4.1709,4.171,4.1707,4.1718,4.1724,4.1714,4.1714,4.1714,4.1714,4.1714,4.1714,4.1987,4.1965,4.1955,4.1925,4.1911,4.1888,4.1877,4.1861,4.1845,4.1816,4.1797,4.1784,4.1763,4.1737,4.1715,4.171,4.1701,4.1701,4.1694,4.1705,4.1706,4.1706,4.1712,4.1699,4.1699,4.1685,4.1684,4.1684]}]]